Waarnemingen

Advertentie
Mijn weer
Romorantin, Frankrijk (7247): temperatuur & dauwpunt: 15.08.2019 07:00:00 - 21.08.2019 07:00:00 (CEST)Romorantin, Frankrijk (7247): temperatuur 5cm: 15.08.2019 07:00:00 - 21.08.2019 07:00:00 (CEST)Romorantin, Frankrijk (7247): temperatuur -20cm & temperatuur -100cm: 15.08.2019 07:00:00 - 21.08.2019 07:00:00 (CEST)Romorantin, Frankrijk (7247): windsnelheid & windstoten: 15.08.2019 07:00:00 - 21.08.2019 07:00:00 (CEST)Romorantin, Frankrijk (7247): windrichting: 15.08.2019 07:00:00 - 21.08.2019 07:00:00 (CEST)Romorantin, Frankrijk (7247): luchtdruk: 15.08.2019 07:00:00 - 21.08.2019 07:00:00 (CEST)Romorantin, Frankrijk (7247): zicht: 15.08.2019 07:00:00 - 21.08.2019 07:00:00 (CEST)Romorantin, Frankrijk (7247): neerslag: 15.08.2019 07:00:00 - 21.08.2019 07:00:00 (CEST)
Datum & Tijd tt [°C] td [°C] tt 5cm [°C] tt -20cm [°C] tt -100cm [°C] ff [km/u] ff [kn] fx [km/u] fx [kn] dd ppp [hPa] vv [km] rr [mm]
21.08.2019 07:00:00 6,3 5,7 4,2 19,6 19,8 0 0 2 1 N 1027,1 0,2 0,0
21.08.2019 06:00:00 7,7 7,3 4,8 19,8 19,8 0 0 8 5 N 1026,9 0,6 0,0
21.08.2019 05:00:00 8,9 8,0 5,5 19,9 19,8 3 2 8 4 NNO 1026,7 20 0,0
21.08.2019 04:00:00 9,7 9,6 5,8 20,1 19,8 4 2 7 4 NO 1026,8 20 0,0
21.08.2019 03:00:00 8,6 8,2 6,1 20,2 19,8 0 0 5 3 N 1026,9 20 0,0
21.08.2019 02:00:00 8,9 8,0 6,5 20,4 19,8 0 0 3 2 N 1026,8 20 0,0
21.08.2019 01:00:00 10,3 9,5 7,5 20,5 19,8 0 0 0 0 N 1026,8 20 0,0
21.08.2019 00:00:00 11,8 8,6 9,0 20,6 19,8 0 0 8 4 N 1026,6 20 0,0
20.08.2019 23:00:00 12,6 10,0 10,0 20,7 19,8 0 0 3 2 N 1026,5 20 0,0
20.08.2019 22:00:00 14,2 10,0 11,1 20,7 19,8 0 0 6 3 N 1026,0 20 0,0
20.08.2019 21:00:00 20,2 9,7 15,4 20,6 19,8 3 1 11 6 NNO 1025,2 20 0,0
20.08.2019 20:00:00 23,3 8,9 22,5 20,5 19,8 4 2 14 8 NNO 1024,7 20 0,0
20.08.2019 19:00:00 24,4 9,2 25,9 20,4 19,8 7 4 16 9 NNW 1024,3 20 0,0
20.08.2019 18:00:00 24,9 8,8 26,9 20,1 19,8 6 3 21 11 N 1024,2 20 0,0
20.08.2019 17:00:00 24,3 8,7 28,7 19,9 19,8 5 3 18 10 W 1023,9 20 0,0
20.08.2019 16:00:00 24,9 8,8 26,4 19,7 19,8 5 3 16 9 W 1024,0 20 0,0
20.08.2019 15:00:00 23,6 9,2 28,3 19,5 19,8 3 1 13 7 N 1024,1 20 0,0
20.08.2019 14:00:00 23,5 9,8 28,0 19,3 19,8 6 3 21 12 NNO 1023,7 20 0,0
20.08.2019 13:00:00 22,1 9,3 28,4 19,2 19,9 5 3 14 8 NO 1023,9 20 0,0
20.08.2019 12:00:00 22,1 10,6 28,0 19,1 19,8 6 3 11 6 ZO 1023,9 20 0,0
20.08.2019 11:00:00 20,1 10,8 24,1 19,1 19,9 4 2 10 5 NO 1023,8 20 0,0
20.08.2019 10:00:00 16,2 11,4 15,7 19,1 19,8 3 2 7 4 NNO 1023,8 20 0,0
20.08.2019 09:00:00 11,8 10,5 10,0 19,2 19,8 0 0 4 2 N 1023,2 20 0,0
20.08.2019 08:00:00 9,1 8,6 8,1 19,3 19,9 0 0 3 1 N 1023,1 20 0,0
20.08.2019 07:00:00 8,8 8,2 7,7 19,5 19,9 0 0 5 3 N 1022,7 20 0,0
20.08.2019 06:00:00 8,0 7,6 6,8 19,6 19,9 0 0 5 3 N 1022,4 20 0,0
20.08.2019 05:00:00 7,5 7,1 6,6 19,8 19,9 0 0 4 2 N 1022,1 19 0,0
20.08.2019 04:00:00 7,3 6,6 6,4 19,9 19,9 0 0 5 3 N 1021,8 20 0,0
20.08.2019 03:00:00 7,6 7,0 6,4 20,1 19,9 0 0 3 1 N 1021,8 20 0,0
20.08.2019 02:00:00 8,7 8,4 6,5 20,2 19,9 0 0 2 1 N 1022,1 1,9 0,0
20.08.2019 01:00:00 8,7 7,8 6,9 20,3 19,9 0 0 0 0 N 1022,3 20 0,0
20.08.2019 00:00:00 10,6 8,2 7,9 20,4 19,9 0 0 2 1 N 1022,3 20 0,0
19.08.2019 23:00:00 11,9 9,6 9,6 20,5 19,9 0 0 3 1 N 1022,1 20 0,0
19.08.2019 22:00:00 14,0 10,0 11,4 20,5 19,9 0 0 4 2 N 1021,5 20 0,0
19.08.2019 21:00:00 16,9 10,3 14,7 20,5 19,9 0 0 11 6 N 1020,6 20 0,0
19.08.2019 20:00:00 21,3 8,9 21,3 20,4 19,9 6 3 14 7 ZW 1020,2 20 0,0
19.08.2019 19:00:00 22,1 7,9 23,6 20,3 19,9 5 3 18 10 WZW 1020,1 20 0,0
19.08.2019 18:00:00 22,3 8,4 25,6 20,2 19,9 10 5 21 12 NW 1020,0 20 0,0
19.08.2019 17:00:00 22,1 7,9 25,8 20,1 19,9 13 7 21 11 W 1020,2 20 0,0
19.08.2019 16:00:00 21,9 8,0 25,1 19,9 19,9 12 6 24 13 WNW 1020,3 20 0,0
19.08.2019 15:00:00 21,6 7,4 25,7 19,8 19,9 10 5 22 12 W 1020,3 20 0,0
19.08.2019 14:00:00 21,2 8,8 25,0 19,6 19,9 13 7 27 14 W 1020,2 20 0,0
19.08.2019 13:00:00 20,6 10,7 24,6 19,6 19,9 9 5 24 13 WNW 1020,2 20 0,0
19.08.2019 12:00:00 19,9 10,6 23,9 19,5 19,9 13 7 24 13 ZW 1020,2 20 0,0
19.08.2019 11:00:00 18,3 12,3 21,8 19,5 19,9 9 5 18 10 WZW 1020,1 20 0,0
19.08.2019 10:00:00 16,6 12,5 16,1 19,6 19,9 6 4 14 8 WZW 1020,0 20 0,0
19.08.2019 09:00:00 13,8 12,0 15,0 19,7 19,9 6 4 10 5 WZW 1019,9 20 0,0
19.08.2019 08:00:00 11,0 10,8 6,5 19,8 20,0 4 2 5 3 Z 1019,3 19 0,0
19.08.2019 07:00:00 8,5 7,7 6,1 19,9 19,9 0 0 7 4 N 1019,1 0,5 0,0
19.08.2019 06:00:00 10,3 9,8 6,4 20,1 20,0 4 2 10 5 Z 1018,4 4,7 0,0
19.08.2019 05:00:00 10,9 9,5 7,2 20,2 20,0 5 3 13 7 ZZW 1017,9 20 0,0
19.08.2019 04:00:00 12,7 10,4 8,5 20,4 20,0 8 4 12 7 ZW 1017,6 20 0,0
19.08.2019 03:00:00 12,9 10,1 8,4 20,5 20,0 7 4 13 7 ZW 1017,2 20 0,0
19.08.2019 02:00:00 14,7 10,7 11,3 20,6 20,0 8 4 13 7 ZW 1016,9 20 0,0
19.08.2019 01:00:00 16,4 10,9 13,2 20,7 20,0 6 3 17 9 WZW 1016,3 20 0,0
19.08.2019 00:00:00 17,1 12,2 13,8 20,7 20,0 6 3 14 8 WZW 1015,3 20 0,0
18.08.2019 23:00:00 17,2 13,5 14,2 20,8 20,0 9 5 13 7 ZZW 1014,6 20 0,0
18.08.2019 22:00:00 18,9 13,7 15,7 20,8 20,0 3 2 14 8 WNW 1013,1 20 0,0
18.08.2019 21:00:00 20,6 14,0 19,0 20,8 20,0 9 5 16 8 WZW 1012,9 20 0,0
18.08.2019 20:00:00 21,4 14,1 20,6 20,8 20,0 7 4 24 13 W 1012,7 20 0,0
18.08.2019 19:00:00 22,4 14,5 23,6 20,7 20,0 10 5 24 13 W 1012,5 20 0,0
18.08.2019 18:00:00 22,6 15,9 23,5 20,7 20,0 14 8 25 14 W 1012,2 20 0,0
18.08.2019 17:00:00 21,6 15,7 20,6 20,6 20,0 14 7 26 14 WZW 1011,8 20 0,0
18.08.2019 16:00:00 21,2 15,9 20,8 20,6 20,0 13 7 31 17 WZW 1012,0 20 0,0
18.08.2019 15:00:00 21,3 15,4 21,9 20,5 20,0 19 10 37 20 W 1011,2 20 0,0
18.08.2019 14:00:00 23,3 16,3 25,3 20,5 20,0 23 13 42 23 WZW 1011,2 20 0,0
18.08.2019 13:00:00 23,9 16,4 25,7 20,4 20,0 26 14 48 26 WZW 1010,5 20 0,0
18.08.2019 12:00:00 24,7 17,4 27,1 20,4 20,0 21 11 46 25 WZW 1009,4 20 0,0
18.08.2019 11:00:00 23,2 18,7 22,2 20,4 20,0 22 12 42 23 ZW 1008,9 20 0,0
18.08.2019 10:00:00 21,8 18,2 22,4 20,3 20,0 25 14 42 23 WZW 1009,1 20 0,0
18.08.2019 09:00:00 20,9 18,5 19,8 20,4 20,0 12 6 23 12 ZW 1008,0 20 0,0
18.08.2019 08:00:00 19,3 17,6 17,2 20,4 20,0 10 5 18 10 ZZW 1007,6 20 0,0
18.08.2019 07:00:00 18,7 17,2 16,6 20,5 20,0 11 6 25 13 ZZW 1007,6 20 0,0
18.08.2019 06:00:00 18,4 17,1 16,4 20,5 20,0 8 5 18 10 Z 1008,2 20 0,0
18.08.2019 05:00:00 18,9 17,4 16,9 20,6 20,0 10 6 20 11 ZW 1009,0 20 0,0
18.08.2019 04:00:00 18,2 17,2 14,6 20,7 20,0 10 5 16 9 ZZW 1009,5 20 0,0
18.08.2019 03:00:00 17,6 17,0 14,5 20,7 20,0 5 3 10 6 Z 1009,7 20 0,0
18.08.2019 02:00:00 18,8 17,5 16,3 20,7 20,0 6 3 15 8 Z 1009,9 20 0,0
18.08.2019 01:00:00 20,6 18,2 19,4 20,8 20,0 11 6 19 10 ZW 1010,3 20 0,0
18.08.2019 00:00:00 20,7 18,5 19,7 20,8 20,0 10 5 22 12 ZW 1010,9 20 0,0
17.08.2019 23:00:00 20,9 18,7 20,0 20,8 20,0 12 6 29 15 ZW 1011,2 20 0,0
17.08.2019 22:00:00 20,8 19,1 19,7 20,7 20,0 15 8 31 17 ZW 1011,5 20 0,0
17.08.2019 21:00:00 20,7 19,4 19,8 20,7 20,0 14 7 40 21 ZW 1011,1 20 0,2
17.08.2019 20:00:00 22,0 19,2 21,8 20,7 20,0 20 11 41 22 ZW 1011,2 18 0,0
17.08.2019 19:00:00 22,2 19,4 21,0 20,6 20,0 18 10 36 19 ZW 1011,1 20 0,0
17.08.2019 18:00:00 21,8 19,4 20,6 20,6 20,0 16 9 48 26 ZW 1011,4 12 0,0
17.08.2019 17:00:00 23,2 18,1 21,7 20,6 20,0 23 12 52 28 ZW 1011,3 20 0,0
17.08.2019 16:00:00 22,8 17,7 22,5 20,6 20,0 22 12 44 24 ZW 1011,6 20 0,0
17.08.2019 15:00:00 21,8 17,6 20,4 20,6 20,1 19 10 37 20 ZZW 1011,7 20 0,0
17.08.2019 14:00:00 20,3 18,2 19,2 20,5 20,0 15 8 29 15 ZZW 1012,2 20 0,4
17.08.2019 13:00:00 19,3 17,4 18,6 20,6 20,0 14 7 33 18 ZW 1012,8 3,6 0,6
17.08.2019 12:00:00 19,2 17,2 18,5 20,6 20,0 18 10 28 15 ZZW 1012,9 12 0,2
17.08.2019 11:00:00 19,0 16,4 18,6 20,6 20,0 14 7 24 13 ZZW 1013,1 13 0,2
17.08.2019 10:00:00 18,8 15,8 17,5 20,7 20,0 14 8 22 12 ZZW 1013,0 20 0,0
17.08.2019 09:00:00 17,8 16,0 17,0 20,7 20,1 9 5 18 10 Z 1013,2 20 0,2
17.08.2019 08:00:00 17,7 15,1 16,6 20,8 20,0 10 5 20 11 ZZW 1013,1 20 0,0
17.08.2019 07:00:00 17,6 15,0 16,3 20,8 20,0 11 6 27 14 ZZW 1013,0 20 0,0
17.08.2019 06:00:00 17,6 14,7 16,8 20,9 20,0 10 5 20 11 ZZW 1013,1 20 0,0
17.08.2019 05:00:00 17,5 14,2 16,2 21,0 20,1 11 6 19 10 ZZW 1013,2 20 0,0
17.08.2019 04:00:00 17,5 13,6 16,4 21,1 20,1 10 6 17 9 ZZW 1013,4 20 0,0
17.08.2019 03:00:00 17,5 13,4 16,1 21,2 20,1 10 5 14 8 ZZW 1013,6 20 0,0
17.08.2019 02:00:00 17,7 13,0 13,6 21,3 20,1 10 5 14 7 ZZW 1014,0 20 0,0
17.08.2019 01:00:00 15,3 12,4 12,2 21,4 20,0 6 3 10 5 ZZW 1013,9 20 0,0
17.08.2019 00:00:00 14,2 12,2 11,5 21,5 20,1 2 1 4 2 WNW 1014,2 20 0,0
16.08.2019 23:00:00 14,5 11,3 12,1 21,5 20,1 0 0 4 2 N 1014,2 20 0,0
16.08.2019 22:00:00 17,4 11,9 13,8 21,5 20,1 4 2 11 6 ZZW 1014,4 20 0,0
16.08.2019 21:00:00 22,6 12,2 19,5 21,4 20,1 5 3 24 13 W 1013,9 20 0,0
16.08.2019 20:00:00 24,4 12,4 24,1 21,3 20,1 11 6 20 11 WZW 1013,9 20 0,0
16.08.2019 19:00:00 24,4 12,4 25,4 21,1 20,1 12 6 29 16 WZW 1014,0 20 0,0
16.08.2019 18:00:00 25,7 11,8 29,1 20,9 20,1 17 9 30 16 ZZW 1014,5 20 0,0
16.08.2019 17:00:00 26,2 12,3 28,7 20,7 20,1 16 9 31 17 ZW 1014,8 20 0,0
16.08.2019 16:00:00 25,5 12,3 30,4 20,5 20,1 19 10 44 24 ZW 1015,7 20 0,0
16.08.2019 15:00:00 24,9 11,8 29,1 20,3 20,1 11 6 34 18 ZZW 1016,6 20 0,0
16.08.2019 14:00:00 23,6 11,6 29,8 20,1 20,1 16 9 45 24 ZZW 1017,5 20 0,0
16.08.2019 13:00:00 23,1 11,5 26,6 20,0 20,1 14 7 27 14 ZZW 1017,8 20 0,0
16.08.2019 12:00:00 22,4 12,6 30,5 20,0 20,1 11 6 26 14 Z 1018,6 20 0,0
16.08.2019 11:00:00 20,5 12,7 25,8 19,9 20,1 8 4 16 9 Z 1019,4 20 0,0
16.08.2019 10:00:00 18,0 12,9 21,6 20,0 20,1 7 4 14 7 Z 1019,5 20 0,0
16.08.2019 09:00:00 14,1 12,8 12,7 20,1 20,1 2 1 6 4 Z 1020,0 20 0,0
16.08.2019 08:00:00 10,4 10,4 6,8 20,2 20,1 0 0 5 3 N 1020,1 20 0,0
16.08.2019 07:00:00 8,6 8,6 6,0 20,4 20,1 0 0 3 2 N 1020,4 1,3 0,0
16.08.2019 06:00:00 8,9 8,8 6,7 20,5 20,1 0 0 3 1 N 1020,6 0,1 0,0
16.08.2019 05:00:00 9,4 9,3 7,0 20,7 20,1 0 0 0 0 N 1021,0 0,4 0,0
16.08.2019 04:00:00 10,0 9,7 7,3 20,8 20,1 0 0 3 1 N 1021,1 0,4 0,0
16.08.2019 03:00:00 10,8 9,7 8,2 20,9 20,1 0 0 6 3 N 1021,4 0,9 0,0
16.08.2019 02:00:00 12,6 10,3 9,9 21,0 20,1 0 0 3 2 N 1021,2 20 0,0
16.08.2019 01:00:00 14,5 11,8 13,2 21,1 20,1 0 0 5 3 N 1021,2 20 0,0
16.08.2019 00:00:00 16,4 11,8 14,2 21,2 20,1 4 2 9 5 ZZW 1021,2 20 0,0
15.08.2019 23:00:00 17,0 11,7 12,4 21,3 20,1 6 4 10 5 ZW 1021,0 20 0,0
15.08.2019 22:00:00 17,8 11,4 13,7 21,3 20,1 7 4 13 7 ZW 1020,8 20 0,0
15.08.2019 21:00:00 21,0 11,6 19,0 21,3 20,1 9 5 26 14 WZW 1020,1 20 0,0
15.08.2019 20:00:00 22,7 11,1 22,5 21,2 20,1 16 8 31 17 W 1019,6 20 0,0
15.08.2019 19:00:00 23,7 11,1 23,4 21,1 20,1 19 10 31 17 WZW 1019,2 20 0,0
15.08.2019 18:00:00 23,6 11,3 24,9 21,0 20,1 16 9 34 18 W 1019,0 20 0,0
15.08.2019 17:00:00 24,0 11,7 25,3 20,9 20,1 15 8 34 18 W 1019,0 20 0,0
15.08.2019 16:00:00 22,5 11,9 25,0 20,8 20,1 18 10 29 16 WZW 1019,3 20 0,0
15.08.2019 15:00:00 21,5 12,1 23,6 20,8 20,1 14 8 29 16 W 1019,3 20 0,0
15.08.2019 14:00:00 20,8 12,7 22,5 20,8 20,1 14 8 29 16 W 1019,3 20 0,0
15.08.2019 13:00:00 19,9 12,9 21,5 20,8 20,1 15 8 29 16 WZW 1019,1 20 0,0
15.08.2019 12:00:00 19,8 12,3 22,8 20,8 20,1 18 10 33 18 W 1018,9 20 0,0
15.08.2019 11:00:00 19,3 13,9 19,6 20,8 20,1 13 7 27 14 W 1018,3 20 0,0
15.08.2019 10:00:00 17,8 15,1 18,0 20,9 20,1 12 6 23 12 WZW 1017,8 20 0,0
15.08.2019 09:00:00 17,4 15,4 16,8 20,9 20,1 10 6 22 12 WZW 1017,4 20 0,0
15.08.2019 08:00:00 16,8 15,3 16,0 21,0 20,1 12 6 22 12 WZW 1016,9 20 0,0
15.08.2019 07:00:00 16,7 15,6 16,0 21,0 20,1 10 6 20 11 WZW 1016,2 20 0,0

tt = temperatuur
td = dauwpunt
tt 5cm = temperatuur 5cm
tt -20cm = temperatuur -20cm
tt -100cm = temperatuur -100cm
ff = windsnelheid
fx = windstoten
dd = windrichting
ppp = luchtdruk
vv = zicht
rr = neerslag

Weerstations in de omgeving